Rockwall, TX

5:08 PM CDT on April 26, 2017 (GMT -0500)
Rockwall

Weather History for KF46 - February, 2013

Change the Weather History Date:

Sunday, February 17, 2013

  Actual Average (KDFW) Record (KDFW)
Temperature  
Mean Temperature 53 °F -  
Max Temperature 69 °F 59 °F 88 °F (1959)
Min Temperature 37 °F 40 °F 11 °F (1910)
Degree Days  
Heating Degree Days 12    
Growing Degree Days 3 (Base 50)    
Moisture  
Dew Point 33 °F    
Average Humidity 49    
Maximum Humidity 78    
Minimum Humidity 22    
Precipitation  
Precipitation 0.00 in - - ()
Sea Level Pressure  
Sea Level Pressure 30.03 in    
Wind  
Wind Speed 12 mph (South)    
Max Wind Speed 25 mph    
Max Gust Speed 38 mph    
Visibility 10 miles    
Events      
Averages and records for this station are not official NWS values.
T = Trace of Precipitation, MM = Missing Value Source: NWS Daily Summary

Daily Weather History Graph

Daily Weather History Graph

Search for Another Location

Airport or City:

Trip Planner

Search our weather history database for the weather conditions in past years. The results will help you decide how hot, cold, wet, or windy it might be!

Date:

Astronomy

Feb. 17, 2013 Rise Set
Actual Time 7:06 AM CST 6:13 PM CST
Civil Twilight 6:41 AM CST 6:38 PM CST
Nautical Twilight 6:12 AM CST 7:07 PM CST
Astronomical Twilight 5:44 AM CST 7:35 PM CST
Moon 11:25 AM CST (2/17) 12:45 AM CST (2/17)
Length of Visible Light 11h 56m
Length of Day
11h 06m
Waxing Crescent, 49% of the Moon is Illuminated
Feb 17
Waxing Crescent
Feb 17
First Quarter
Feb 25
Full
Mar 4
Last Quarter
Mar 11
New

Hourly Weather History & Observations

Time (CST) Temp. Windchill Dew Point Humidity Pressure Visibility Wind Dir Wind Speed Gust Speed Precip Events Conditions
12:15 AM 39.6 °F 35.4 °F 30.4 °F 70% 30.17 in 10.0 mi South 5.8 mph - N/A   Clear
12:35 AM 40.1 °F 35.3 °F 30.7 °F 69% 30.17 in 10.0 mi South 6.9 mph - N/A   Clear
1:15 AM 41.4 °F 36.8 °F 30.2 °F 65% 30.16 in 10.0 mi South 6.9 mph - N/A   Clear
1:35 AM 41.0 °F 36.4 °F 29.8 °F 64% 30.16 in 10.0 mi South 6.9 mph - N/A   Clear
1:55 AM 41.0 °F 36.4 °F 29.3 °F 63% 30.15 in 10.0 mi South 6.9 mph - N/A   Clear
2:15 AM 40.6 °F 35.4 °F 29.3 °F 64% 30.14 in 10.0 mi South 8.1 mph - N/A   Clear
2:35 AM 40.6 °F 35.4 °F 28.9 °F 63% 30.14 in 10.0 mi South 8.1 mph - N/A   Clear
2:55 AM 40.1 °F 34.7 °F 28.9 °F 64% 30.12 in 10.0 mi South 8.1 mph - N/A   Clear
3:15 AM 39.6 °F 33.0 °F 28.9 °F 66% 30.12 in 10.0 mi South 10.4 mph - N/A   Clear
3:35 AM 39.4 °F 32.7 °F 28.9 °F 66% 30.11 in 10.0 mi South 10.4 mph - N/A   Clear
3:55 AM 39.2 °F 33.0 °F 28.9 °F 67% 30.10 in 10.0 mi South 9.2 mph - N/A   Clear
4:35 AM 38.7 °F 31.8 °F 29.3 °F 69% 30.10 in 10.0 mi South 10.4 mph - N/A   Clear
4:55 AM 38.7 °F 31.8 °F 29.3 °F 69% 30.10 in 10.0 mi South 10.4 mph - N/A   Clear
5:15 AM 37.9 °F 32.1 °F 29.7 °F 72% 30.10 in 10.0 mi South 8.1 mph - N/A   Clear
5:35 AM 37.6 °F 31.0 °F 30.0 °F 74% 30.10 in 10.0 mi South 9.2 mph - N/A   Clear
5:55 AM 37.2 °F 30.6 °F 30.0 °F 75% 30.10 in 10.0 mi South 9.2 mph - N/A   Clear
6:15 AM 37.4 °F 30.3 °F 30.6 °F 76% 30.10 in 10.0 mi South 10.4 mph - N/A   Clear
6:35 AM 38.3 °F 30.9 °F 31.1 °F 75% 30.10 in 10.0 mi South 11.5 mph - N/A   Clear
6:55 AM 37.4 °F 30.8 °F 31.1 °F 78% 30.10 in 10.0 mi South 9.2 mph - N/A   Clear
7:15 AM 37.8 °F 31.3 °F 31.5 °F 78% 30.10 in 10.0 mi South 9.2 mph - N/A   Clear
7:55 AM 40.1 °F 32.4 °F 32.0 °F 73% 30.10 in 10.0 mi South 13.8 mph - N/A   Clear
8:15 AM 42.3 °F 35.9 °F 32.2 °F 67% 30.11 in 10.0 mi South 11.5 mph 17.3 mph N/A   Clear
8:35 AM 44.6 °F 38.1 °F 32.4 °F 62% 30.11 in 10.0 mi South 13.8 mph - N/A   Clear
8:55 AM 46.0 °F 39.9 °F 32.7 °F 60% 30.11 in 10.0 mi South 13.8 mph - N/A   Clear
9:15 AM 48.6 °F - 33.4 °F 56% 30.12 in 10.0 mi South 11.5 mph - N/A   Clear
9:35 AM 50.7 °F - 33.4 °F 52% 30.12 in 10.0 mi SSW 11.5 mph - N/A   Clear
9:55 AM 52.5 °F - 33.1 °F 48% 30.11 in 10.0 mi SSW 11.5 mph - N/A   Clear
10:15 AM 54.5 °F - 33.3 °F 45% 30.11 in 10.0 mi SSW 15.0 mph 19.6 mph N/A   Clear
10:35 AM 55.9 °F - 33.3 °F 42% 30.10 in 10.0 mi SSW 13.8 mph 19.6 mph N/A   Clear
10:55 AM 58.5 °F - 33.3 °F 39% 30.10 in 10.0 mi SSW 12.7 mph 19.6 mph N/A   Clear
11:15 AM 61.0 °F - 33.3 °F 35% 30.09 in 10.0 mi SW 15.0 mph 23.0 mph N/A   Clear
11:35 AM 62.8 °F - 33.1 °F 33% 30.09 in 10.0 mi SSW 13.8 mph - N/A   Clear
11:55 AM 64.2 °F - 34.3 °F 33% 30.08 in 10.0 mi South 15.0 mph 19.6 mph N/A   Clear
12:15 PM 64.8 °F - 33.3 °F 31% 30.07 in 10.0 mi South 19.6 mph 25.3 mph N/A   Clear
12:55 PM 67.1 °F - 32.0 °F 27% 30.04 in 10.0 mi SSW 19.6 mph 26.5 mph N/A   Clear
1:15 PM 67.8 °F - 31.1 °F 26% 30.02 in 10.0 mi South 21.9 mph 32.2 mph N/A   Clear
1:35 PM 68.2 °F - 30.4 °F 24% 30.00 in 10.0 mi South 24.2 mph 34.5 mph N/A   Clear
1:55 PM 68.5 °F - 29.5 °F 23% 29.99 in 10.0 mi SSW 20.7 mph 33.4 mph N/A   Clear
2:15 PM 68.9 °F - 28.0 °F 22% 29.99 in 10.0 mi SSW 21.9 mph 38.0 mph N/A   Clear
2:35 PM 69.3 °F - 30.6 °F 24% 29.97 in 10.0 mi South 20.7 mph 28.8 mph N/A   Clear
3:15 PM 68.5 °F - 31.8 °F 26% 29.96 in 10.0 mi South 25.3 mph 38.0 mph N/A   Clear
3:35 PM 68.7 °F - 32.2 °F 26% 29.95 in 10.0 mi South 18.4 mph 35.7 mph N/A   Clear
3:55 PM 68.0 °F - 32.0 °F 26% 29.95 in 10.0 mi South 20.7 mph 34.5 mph N/A   Clear
4:15 PM 68.0 °F - 32.0 °F 26% 29.95 in 10.0 mi South 24.2 mph 38.0 mph N/A   Clear
4:35 PM 67.5 °F - 32.2 °F 27% 29.94 in 10.0 mi South 21.9 mph 32.2 mph N/A   Clear
4:55 PM 67.1 °F - 32.9 °F 28% 29.94 in 10.0 mi South 23.0 mph 27.6 mph N/A   Clear
5:15 PM 66.9 °F - 32.4 °F 28% 29.93 in 10.0 mi South 24.2 mph 32.2 mph N/A   Clear
5:35 PM 66.0 °F - 32.7 °F 29% 29.93 in 10.0 mi South 21.9 mph 31.1 mph N/A   Clear
5:55 PM 64.6 °F - 32.5 °F 30% 29.92 in 10.0 mi South 24.2 mph 36.8 mph N/A   Clear
6:15 PM 63.5 °F - 32.4 °F 31% 29.92 in 10.0 mi South 19.6 mph 28.8 mph N/A   Clear
6:35 PM 62.1 °F - 33.3 °F 34% 29.93 in 10.0 mi South 12.7 mph 21.9 mph N/A   Clear
7:15 PM 59.7 °F - 34.2 °F 38% 29.93 in 10.0 mi South 11.5 mph 18.4 mph N/A   Clear
7:35 PM 59.4 °F - 34.3 °F 39% 29.93 in 10.0 mi South 11.5 mph 16.1 mph N/A   Clear
7:55 PM 59.0 °F - 34.7 °F 40% 29.93 in 10.0 mi South 10.4 mph - N/A   Clear
8:15 PM 57.7 °F - 34.7 °F 42% 29.92 in 10.0 mi South 9.2 mph - N/A   Clear
8:35 PM 57.4 °F - 34.7 °F 43% 29.92 in 10.0 mi South 12.7 mph 17.3 mph N/A   Clear
8:55 PM 58.5 °F - 35.2 °F 42% 29.92 in 10.0 mi South 11.5 mph 18.4 mph N/A   Clear
9:15 PM 57.9 °F - 35.6 °F 43% 29.93 in 10.0 mi South 11.5 mph - N/A   Clear
9:35 PM 58.1 °F - 37.6 °F 46% 29.93 in 10.0 mi South 17.3 mph 21.9 mph N/A   Clear
10:15 PM 58.3 °F - 41.9 °F 54% 29.92 in 10.0 mi South 19.6 mph 28.8 mph N/A   Clear
10:35 PM 58.1 °F - 43.2 °F 58% 29.92 in 10.0 mi South 20.7 mph 27.6 mph N/A   Clear
10:55 PM 57.7 °F - 44.1 °F 60% 29.92 in 10.0 mi South 18.4 mph 27.6 mph N/A   Clear
11:15 PM 57.7 °F - 44.6 °F 62% 29.92 in 10.0 mi South 21.9 mph 32.2 mph N/A   Clear
11:35 PM 57.4 °F - 44.8 °F 63% 29.92 in 10.0 mi South 20.7 mph 27.6 mph N/A   Clear
11:55 PM 57.2 °F - 45.0 °F 64% 29.92 in 10.0 mi South 18.4 mph 27.6 mph N/A   Clear